This demonstration page uses our WeatherBlox Daily Observations layout. Learn more.

Left ArrowRight Arrow

39.92423, -83.80882

Hourly Observations for July 10, 2022

Temp ( °F °C ) Dew Point ( °F °C ) Humidity (%) Winds ( mph kmh ) Pressure ( in mb ) Visibility ( mi km ) Precip ( " mm )
12:56 am 00:56 Mostly Clear 64 17.8 50 10 60 60 NNE 9 15 30.09 1019 10 16 0.00 0.00
1:56 am 01:56 Clear 60 15.6 52 11.1 75 75 ENE 8 13 30.08 1019 10 16 0.00 0.00
2:56 am 02:56 Clear 59 15 51 10.6 75 75 NE 7 11 30.07 1018 10 16 0.00 0.00
3:56 am 03:56 Clear 60 15.6 50 10 70 70 NNE 7 11 30.06 1018 10 16 0.00 0.00
4:56 am 04:56 Clear 58 14.4 54 12.2 87 87 NE 7 11 30.06 1018 10 16 0.00 0.00
5:56 am 05:56 Clear 58 14.4 55 12.8 90 90 NNE 9 15 30.06 1018 10 16 0.00 0.00
6:56 am 06:56 Sunny 58 14.4 58 14.4 100 100 NE 6 9 30.07 1018 10 16 0.01 0.25
7:56 am 07:56 Sunny 63 17.2 55 12.8 76 76 NE 10 17 30.07 1018 10 16 0.00 0.00
8:56 am 08:56 Sunny 67 19.4 57 13.9 71 71 NE 8 13 30.09 1019 10 16 0.02 0.51
9:56 am 09:56 Sunny 70 21.1 59 15 68 68 E 5 7 30.10 1019 10 16 0.00 0.00
10:56 am 10:56 Sunny 74 23.3 62 16.7 67 67 ENE 6 9 30.09 1019 10 16 0.00 0.00
11:56 am 11:56 Sunny 77 25 62 16.7 60 60 E 5 7 30.09 1019 10 16 0.01 0.25
12:56 pm 12:56 Sunny 78 25.6 63 17.2 60 60 ENE 5 7 30.07 1018 10 16 0.00 0.00
1:56 pm 13:56 Sunny 82 27.8 65 18.3 56 56 E 5 7 30.05 1018 10 16 0.00 0.00
2:56 pm 14:56 Sunny 82 27.8 64 17.8 55 55 ENE 6 9 30.04 1017 10 16 0.00 0.00
3:56 pm 15:56 Sunny 82 27.8 63 17.2 53 53 Calm 30.01 1016 10 16 0.00 0.00
4:56 pm 16:56 Mostly Cloudy 83 28.3 62 16.7 49 49 VRB 3 6 30.00 1016 10 16 0.00 0.00
5:56 pm 17:56 Sunny 82 27.8 60 15.6 47 47 Calm 30.00 1016 10 16 0.00 0.00
6:56 pm 18:56 Sunny 82 27.8 62 16.7 51 51 ENE 3 6 29.98 1015 10 16 0.00 0.00
7:56 pm 19:56 Sunny 80 26.7 65 18.3 60 60 ENE 3 6 29.98 1015 10 16 0.00 0.00
8:56 pm 20:56 Sunny 75 23.9 68 20 79 79 NE 3 6 29.98 1015 10 16 0.00 0.00
9:56 pm 21:56 Clear 71 21.7 67 19.4 87 87 Calm 29.98 1015 10 16 0.01 0.25
10:56 pm 22:56 Clear 70 21.1 66 18.9 87 87 Calm 29.98 1015 10 16 0.00 0.00
11:56 pm 23:56 Clear 66 19 N/A N/A N 3 6 29.98 1015 10 16 0.00 0.00

Powered by AerisWeather